Location: Solstice Park, West Seattle
(47.5363°N, 122.3905°W)
Time: 09:08:59
(UTC-07:00)

ISS - Pass Details

Date: 22 May 2021
Orbit: 417 x 422 km, 51.6° (Epoch: 18 June)

Event Time Altitude Azimuth Distance (km) Brightness Sun altitude
Rises 00:02:55 0° 293° (WNW) 2,370 0.6 -20.5°
Reaches altitude 10° 00:05:02 10° 296° (WNW) 1,505 -0.4 -20.6°
Maximum altitude 00:08:23 65° 19° (NNE) 465 -3.5 -20.8°
Enters shadow 00:08:38 62° 48° (NE) 476 -3.5 -20.8°
